When you browse on this site, cookies collect data to enhance your experience and personalize the content and advertising you see.
Visit our Privacy Policy to learn more. By continuing to use the site, you agree to this use of cookies and data.
  • En Estados Unidos
  • Lista de países
  • Para 7 días
  • Temperatura del agua
  • El tiempo en el mapa
  • Informadores
  • user-avatar
    Iniciar sesión

    Tiempo cada hora Washington

    Hoy, 25 Agosto, Domingo

    Tiempo Temperatura Precipitaciones Viento Presión Humedad
    00:00 +19°C° 0 mm 2 mps 760 mmHg 67%
    01:00 +18°C° 0 mm 2 mps 760 mmHg 69%
    02:00 +17°C° 0 mm 2 mps 759 mmHg 71%
    03:00 +16°C° 0 mm 2 mps 759 mmHg 73%
    04:00 +16°C° 0 mm 1 mps 759 mmHg 75%
    05:00 +16°C° 0 mm 2 mps 759 mmHg 74%
    06:00 +17°C° 0 mm 2 mps 760 mmHg 74%
    07:00 +18°C° 0 mm 2 mps 760 mmHg 73%
    08:00 +19°C° 0 mm 2 mps 760 mmHg 66%
    09:00 +21°C° 0 mm 3 mps 760 mmHg 60%
    10:00 +24°C° 0 mm 3 mps 759 mmHg 54%
    11:00 +25°C° 0 mm 3 mps 759 mmHg 51%
    12:00 +26°C° 0 mm 4 mps 759 mmHg 49%
    13:00 +27°C° 0 mm 4 mps 759 mmHg 46%
    14:00 +27°C° 0 mm 3 mps 759 mmHg 49%
    15:00 +26°C° 0 mm 3 mps 758 mmHg 51%
    16:00 +26°C° 0 mm 3 mps 758 mmHg 54%
    17:00 +25°C° 0 mm 3 mps 758 mmHg 60%
    18:00 +22°C° 0 mm 3 mps 758 mmHg 65%
    19:00 +21°C° 0 mm 3 mps 759 mmHg 71%
    20:00 +20°C° 0 mm 2 mps 759 mmHg 73%
    21:00 +19°C° 0 mm 2 mps 759 mmHg 76%
    22:00 +19°C° 0 mm 1 mps 759 mmHg 78%
    23:00 +19°C° 0 mm 1 mps 759 mmHg 81%

    Mañana, 26 Agosto, Lunes

    Tiempo Temperatura Precipitaciones Viento Presión Humedad
    00:00 +19°C° 0 mm 1 mps 759 mmHg 83%
    01:00 +18°C° 0 mm 1 mps 759 mmHg 85%
    02:00 +17°C° 0 mm 2 mps 759 mmHg 87%
    03:00 +17°C° 0 mm 2 mps 758 mmHg 88%
    04:00 +17°C° 0 mm 2 mps 758 mmHg 89%
    05:00 +17°C° 0 mm 2 mps 758 mmHg 88%
    06:00 +18°C° 0 mm 2 mps 758 mmHg 86%
    07:00 +18°C° 0 mm 2 mps 759 mmHg 84%
    08:00 +19°C° 0 mm 2 mps 759 mmHg 78%
    09:00 +21°C° 0 mm 2 mps 759 mmHg 72%
    10:00 +24°C° 0 mm 2 mps 759 mmHg 66%
    11:00 +24°C° 0 mm 2 mps 758 mmHg 64%
    12:00 +25°C° 0 mm 3 mps 758 mmHg 62%
    13:00 +26°C° 0 mm 3 mps 758 mmHg 60%
    14:00 +26°C° 0 mm 3 mps 757 mmHg 61%
    15:00 +26°C° 0 mm 3 mps 757 mmHg 63%
    16:00 +26°C° 0 mm 3 mps 756 mmHg 65%
    17:00 +25°C° 0.1 mm 3 mps 756 mmHg 71%
    18:00 +24°C° 0.1 mm 3 mps 757 mmHg 76%
    19:00 +23°C° 0.1 mm 2 mps 757 mmHg 82%
    20:00 +21°C° 0 mm 2 mps 757 mmHg 83%
    21:00 +21°C° 0 mm 2 mps 757 mmHg 85%
    22:00 +20°C° 0 mm 2 mps 757 mmHg 87%
    23:00 +20°C° 0 mm 2 mps 757 mmHg 88%

    Pasado mañana, 27 Agosto, Martes

    Tiempo Temperatura Precipitaciones Viento Presión Humedad
    00:00 +20°C° 0 mm 2 mps 756 mmHg 89%
    01:00 +20°C° 0 mm 2 mps 756 mmHg 90%
    02:00 +21°C° 0.1 mm 1 mps 756 mmHg 91%
    03:00 +21°C° 0.1 mm 1 mps 756 mmHg 92%
    04:00 +21°C° 0.1 mm 1 mps 755 mmHg 93%
    05:00 +21°C° 0.1 mm 1 mps 755 mmHg 93%
    06:00 +21°C° 0.1 mm 1 mps 755 mmHg 93%
    07:00 +21°C° 0.1 mm 1 mps 756 mmHg 94%
    08:00 +22°C° 0.8 mm 1 mps 755 mmHg 94%
    09:00 +22°C° 0.8 mm 1 mps 755 mmHg 94%
    10:00 +22°C° 0.8 mm 1 mps 755 mmHg 94%
    11:00 +24°C° 0.3 mm 1 mps 755 mmHg 88%
    12:00 +25°C° 0.3 mm 1 mps 755 mmHg 81%
    13:00 +26°C° 0.3 mm 2 mps 754 mmHg 74%
    14:00 +27°C° 0 mm 2 mps 754 mmHg 72%
    15:00 +27°C° 0 mm 2 mps 753 mmHg 69%
    16:00 +28°C° 0 mm 2 mps 753 mmHg 67%
    17:00 +27°C° 0 mm 2 mps 753 mmHg 71%
    18:00 +26°C° 0 mm 2 mps 753 mmHg 74%
    19:00 +25°C° 0 mm 1 mps 753 mmHg 78%
    20:00 +24°C° 0 mm 2 mps 753 mmHg 81%
    21:00 +24°C° 0 mm 2 mps 753 mmHg 83%
    22:00 +23°C° 0 mm 2 mps 754 mmHg 86%
    23:00 +23°C° 0 mm 2 mps 753 mmHg 88%

    28 Agosto, Miércoles

    Tiempo Temperatura Precipitaciones Viento Presión Humedad
    00:00 +21°C° 0 mm 2 mps 753 mmHg 90%
    01:00 +21°C° 0 mm 2 mps 753 mmHg 92%
    02:00 +21°C° 0 mm 2 mps 753 mmHg 92%
    03:00 +21°C° 0 mm 2 mps 752 mmHg 92%
    04:00 +21°C° 0 mm 1 mps 752 mmHg 92%
    05:00 +21°C° 0 mm 2 mps 752 mmHg 91%
    06:00 +21°C° 0 mm 2 mps 752 mmHg 89%
    07:00 +23°C° 0 mm 2 mps 752 mmHg 87%
    08:00 +24°C° 0.4 mm 1 mps 752 mmHg 85%
    09:00 +25°C° 0.4 mm 1 mps 752 mmHg 83%
    10:00 +26°C° 0.4 mm 1 mps 752 mmHg 80%
    11:00 +28°C° 0.1 mm 1 mps 752 mmHg 74%
    12:00 +30°C° 0.1 mm 1 mps 752 mmHg 67%
    13:00 +32°C° 0.1 mm 1 mps 751 mmHg 60%
    14:00 +32°C° 0.2 mm 1 mps 751 mmHg 61%
    15:00 +31°C° 0.2 mm 1 mps 751 mmHg 62%
    16:00 +31°C° 0.2 mm 1 mps 751 mmHg 62%
    17:00 +30°C° 0.1 mm 1 mps 751 mmHg 68%
    18:00 +28°C° 0.1 mm 1 mps 751 mmHg 73%
    19:00 +27°C° 0.1 mm 1 mps 751 mmHg 78%
    20:00 +26°C° 0 mm 1 mps 752 mmHg 79%
    21:00 +25°C° 0 mm 2 mps 752 mmHg 79%
    22:00 +24°C° 0 mm 2 mps 752 mmHg 79%
    23:00 +23°C° 0 mm 2 mps 752 mmHg 77%

    29 Agosto, Jueves

    Tiempo Temperatura Precipitaciones Viento Presión Humedad
    00:00 +23°C° 0 mm 2 mps 752 mmHg 75%
    01:00 +21°C° 0 mm 2 mps 752 mmHg 72%
    02:00 +20°C° 0 mm 2 mps 752 mmHg 74%
    03:00 +20°C° 0 mm 2 mps 753 mmHg 76%
    04:00 +20°C° 0 mm 2 mps 753 mmHg 78%
    05:00 +20°C° 0 mm 2 mps 753 mmHg 78%
    06:00 +20°C° 0 mm 2 mps 754 mmHg 78%
    07:00 +20°C° 0 mm 2 mps 754 mmHg 78%
    08:00 +22°C° 0 mm 3 mps 754 mmHg 71%
    09:00 +25°C° 0 mm 3 mps 755 mmHg 64%
    10:00 +27°C° 0 mm 3 mps 755 mmHg 57%
    11:00 +28°C° 0 mm 3 mps 755 mmHg 53%
    12:00 +28°C° 0 mm 3 mps 755 mmHg 50%
    13:00 +29°C° 0 mm 3 mps 754 mmHg 46%
    14:00 +29°C° 0 mm 3 mps 754 mmHg 45%
    15:00 +30°C° 0 mm 2 mps 754 mmHg 45%
    16:00 +30°C° 0 mm 2 mps 754 mmHg 44%
    17:00 +28°C° 0 mm 2 mps 754 mmHg 51%
    18:00 +26°C° 0 mm 2 mps 754 mmHg 57%
    19:00 +24°C° 0 mm 1 mps 754 mmHg 64%
    20:00 +23°C° 0 mm 1 mps 755 mmHg 66%
    21:00 +22°C° 0 mm 1 mps 755 mmHg 69%
    22:00 +21°C° 0 mm 1 mps 755 mmHg 71%
    23:00 +21°C° 0 mm 1 mps 755 mmHg 72%

    30 Agosto, Viernes

    Tiempo Temperatura Precipitaciones Viento Presión Humedad
    00:00 +20°C° 0 mm 1 mps 755 mmHg 73%
    01:00 +18°C° 0 mm 0 mps 755 mmHg 73%
    02:00 +18°C° 0 mm 0 mps 755 mmHg 74%
    03:00 +17°C° 0 mm 0 mps 755 mmHg 75%
    04:00 +17°C° 0 mm 0 mps 755 mmHg 76%
    05:00 +18°C° 0 mm 0 mps 755 mmHg 74%
    06:00 +18°C° 0 mm 0 mps 756 mmHg 73%
    07:00 +19°C° 0 mm 0 mps 756 mmHg 72%
    08:00 +23°C° 0 mm 1 mps 756 mmHg 67%
    09:00 +25°C° 0 mm 1 mps 756 mmHg 61%
    10:00 +27°C° 0 mm 2 mps 756 mmHg 56%
    11:00 +28°C° 0 mm 2 mps 755 mmHg 54%
    12:00 +30°C° 0 mm 3 mps 755 mmHg 52%
    13:00 +31°C° 0 mm 3 mps 755 mmHg 50%
    14:00 +33°C° 0 mm 3 mps 754 mmHg 49%
    15:00 +33°C° 0 mm 3 mps 754 mmHg 48%
    16:00 +33°C° 0 mm 3 mps 753 mmHg 47%
    17:00 +30°C° 0 mm 3 mps 754 mmHg 53%
    18:00 +29°C° 0 mm 2 mps 754 mmHg 58%
    19:00 +27°C° 0 mm 2 mps 754 mmHg 64%
    20:00 +26°C° 0 mm 2 mps 754 mmHg 68%
    21:00 +25°C° 0 mm 2 mps 754 mmHg 71%
    22:00 +24°C° 0 mm 1 mps 755 mmHg 75%
    23:00 +23°C° 0 mm 1 mps 755 mmHg 75%
    Mostrar más